Regional Weather Roundup
Issued by NWS State College, PA

Home | Current Version | Previous Version | Graphics & Text | Print | Product List | Glossary On
Versions: 1 2 3 4 5 6 7 8 9 10 11 12 13 14 15 16 17 18 19 20 21 22 23 24 25 26 27 28 29 30 31 32 33 34 35 36 37 38 39 40 41 42 43 44 45 46 47 48 49 50
000
ASUS41 KCTP 020510
RWRCTP

REGIONAL WEATHER ROUNDUP
NATIONAL WEATHER SERVICE STATE COLLEGE PA
100 AM EDT TUE SEP 02 2014

Note: "fair" indicates few or no clouds below 12,000 feet with no
significant weather and/or obstructions to visibility.

* = STATION THAT DOES NOT REPORT PRECIPITATION /E.G. RAIN...SNOW...ETC/
    THUNDER OR FOG.

PAZ002>004-007>009-013>016-020>023-029>032-020600-
WESTERN PENNSYLVANIA

CITY           SKY/WX    TMP DP  RH WIND       PRES   REMARKS
ERIE           MOCLDY    74  70  87 SW8       29.87F
MEADVILLE      MOCLDY    72  69  90 S8        29.93F
FRANKLIN*      PTCLDY    72  66  83 SW9       29.96F
NEW CASTLE     FAIR      73  70  91 CALM      29.95S
BEAVER COUNTY  NOT AVBL
BUTLER*        PTCLDY    72  66  83 S10       29.98F
PITTSBURGH INT CLOUDY    74  69  85 S6        29.97S
PITTSBURGH     CLOUDY    73  67  81 S9        29.98S
INDIANA*       CLOUDY    73  70  88 SW7       30.03S
LATROBE        PTCLDY    73  70  88 SW12      30.00S
WASHINGTON CO* MOCLDY    72  68  88 SW5       30.00S
$$

PAZ004>006-010>012-017>019-024>028-033>037-041-042-045-046-049>053-020600-
CENTRAL PENNSYLVANIA

CITY           SKY/WX    TMP DP  RH WIND       PRES   REMARKS
BRADFORD       CLOUDY    71  67  87 SW9       29.97F
DUBOIS         PTCLDY    71  68  90 SW8       29.98F
CLEARFIELD     PTCLDY    68  68 100 SW5       29.98F FOG
JOHNSTOWN      CLOUDY    71  65  81 S10       30.05S
ALTOONA        PTCLDY    74  67  78 SW9       30.01S
STATE COLLEGE  MOCLDY    71  69  92 SW7       29.97F
WILLIAMSPORT   PTCLDY    71  68  90 N5        29.92F
SELINSGROVE    CLEAR     71  69  93 CALM      29.94F FOG
FT INDIANTOWN  CLEAR     71  71 100 CALM      29.96F
CAPITAL CITY   PTCLDY    74  71  91 CALM      29.94F
HARRISBURG     PTCLDY    79  72  79 SW5       29.94F
YORK           CLEAR     70  69  97 CALM      29.96F
$$

PAZ038>040-043-044-047-048-054-055-060>062-067>071-020600-
EASTERN PENNSYLVANIA

CITY           SKY/WX    TMP DP  RH WIND       PRES   REMARKS
SCRANTON       PTCLDY    71  68  90 CALM      29.95F
MOUNT POCONO   PTCLDY    67  65  93 CALM      30.01F FOG
ALLENTOWN      MOCLDY    75  70  84 CALM      29.95F
QUAKERTOWN*    CLEAR     72  72 100 CALM      29.97F
READING        PTCLDY    74  72  93 CALM      29.95S
LANCASTER      CLEAR     74  71  91 SW3       29.95F
COATESVILLE    CLEAR     73  73 100 CALM      29.98F
POTTSTOWN      PTCLDY    72  71  97 CALM      29.97F FOG
BLUE BELL      CLEAR     72  72 100 CALM      29.95S
DOYLESTOWN     CLEAR     73  72  96 S3        29.95F
WILLOW GROVE   NOT AVBL
NORTH PHILA    CLEAR     78  72  81 CALM      29.96S
PHILADELPHIA   CLEAR     78  74  87 CALM      29.95F
$$


USA.gov is the U.S. government's official web portal to all federal, state and local government web resources and services.